#timestamp,LO_Frequency,Hit,StdDev 
1638514815.1,286046999.7,P
1638514816.0,286046999.7,N
1638514835.8,286047001.6,P
1638514855.6,286046999.8,N
1638514875.5,286047002.6,Y
1638514895.3,286047002.1,P
1638514915.1,286046999.8,N
1638514935.9,286046998.7,N
1638514955.7,286046998.2,N
1638514975.5,286047000.0,N
1638514995.4,286047002.0,N
1638515015.2,286047002.2,N
1638515035.0,286047002.6,N
1638515036.0,286047002.6,N
1638515055.8,286047002.0,N
1638515075.6,286047001.5,N
1638515095.5,286047001.4,N
1638515115.3,286047001.8,N
1638515135.1,286046999.9,N
1638515155.9,286047000.2,N
1638515175.7,286047002.8,N
1638515195.5,286047000.6,N
1638515215.4,286047002.1,N
1638515235.2,286046999.9,N
1638515255.0,286046999.9,N
1638515255.9,286046999.9,N
1638515275.8,286047004.0,Y
1638515295.6,286047001.5,P
1638515315.5,286047003.7,P
1638515335.3,286047005.5,P
1638515355.1,286047001.4,N
1638515375.9,286047004.0,N
1638515395.7,286047004.3,N
1638515415.5,286047003.2,N
1638515435.4,286047004.1,N
1638515455.2,286047001.9,N
1638515475.0,286047001.3,N
1638515476.0,286047001.3,N
1638515495.8,286047004.1,N
1638515515.6,286047004.0,N
1638515535.5,286046999.8,N
1638515555.3,286047001.6,N
1638515575.1,286047002.5,N
1638515595.9,286047003.3,N
1638515615.7,286047001.8,N
1638515635.5,286047004.0,N
1638515655.4,286047003.6,N
1638515675.2,286047003.5,N
1638515695.1,286047003.3,N
1638515696.0,286047003.3,N
1638515715.8,286047003.6,N
1638515735.6,286047001.8,N
1638515755.5,286047003.8,N
1638515775.3,286047004.3,Y
1638515795.1,286047001.1,P
1638515815.9,286046998.4,N
1638515835.7,286046998.1,N
1638515855.5,286047001.0,N
1638515875.4,286047000.0,N
1638515895.2,286047002.6,N
1638515915.0,286047002.2,N
1638515916.0,286047002.2,N
1638515935.8,286047002.7,N
1638515955.6,286047002.6,N
1638515975.5,286047001.4,N
1638515995.3,286047003.6,N
1638516015.1,286047001.3,N
1638516035.9,286047004.0,N
1638516055.7,286047003.3,N
1638516075.5,286047003.1,N
1638516095.4,286047003.6,N
1638516115.2,286047004.1,N
1638516135.0,286047001.6,N
1638516135.9,286047001.6,N
1638516155.8,286047002.6,N
1638516175.6,286047002.3,N
1638516195.5,286047001.5,N
1638516215.3,286047004.0,N
1638516235.1,286047004.2,N
1638516255.9,286047001.7,N
1638516275.7,286047000.5,N
1638516295.5,286047000.3,N
1638516315.4,286046998.4,N
1638516335.2,286046998.6,N
1638516355.0,286046998.6,N
1638516355.9,286046998.6,N
1638516375.8,286047000.2,N
1638516395.6,286047002.6,N
1638516415.4,286047002.3,N
1638516435.3,286047002.2,N
1638516455.1,286047001.9,N
1638516475.9,286047003.7,N
1638516495.7,286047005.7,Y
1638516515.5,286047002.4,P
1638516535.4,286047001.5,P
1638516555.2,286047001.8,P
1638516575.0,286047003.1,Y
1638516575.9,286047003.1,P
1638516595.8,286047001.8,N
1638516615.6,286047000.1,N
1638516635.5,286047000.3,N
1638516655.3,286047002.6,N
1638516675.1,286047000.4,N
1638516695.9,286047000.5,N
1638516715.7,286047000.3,N
1638516735.5,286047004.4,Y
1638516755.4,286046998.2,P
1638516775.2,286047000.3,N
1638516795.1,286047001.0,N
1638516796.0,286047001.0,N
1638516815.8,286047001.0,N
1638516835.6,286046999.4,N
1638516855.5,286046999.4,N
1638516875.3,286046998.9,N
1638516895.1,286046998.8,N
1638516915.9,286046999.0,N
1638516935.7,286046999.4,N
1638516955.5,286046996.9,Y
1638516975.4,286046999.4,P
1638516995.2,286046999.2,P
1638517015.1,286046998.5,P
1638517016.0,286046998.5,Y
1638517035.8,286047000.8,P
1638517055.6,286047001.1,N
1638517075.5,286047001.2,N
1638517095.3,286046999.3,N
1638517115.1,286047001.0,N
1638517135.9,286047001.1,N
1638517155.7,286046999.8,N
1638517175.5,286047000.8,N
1638517195.4,286047001.0,N
1638517215.2,286046998.9,N
1638517235.0,286047001.2,N
1638517236.0,286047001.2,N
1638517255.8,286047000.8,N
1638517275.6,286047000.9,N
1638517295.5,286047000.4,N
1638517315.3,286047002.7,Y
1638517335.1,286047002.1,P
1638517355.9,286047001.9,N
1638517375.7,286047002.8,P
1638517395.5,286047004.4,Y
1638517415.4,286047000.9,P
1638517435.2,286047000.3,N
1638517455.1,286046999.9,N
1638517456.0,286046999.9,N
1638517475.8,286047000.8,N
1638517495.6,286046999.8,N
1638517515.5,286047002.7,Y
1638517535.3,286047000.0,P
1638517555.1,286046997.1,P
1638517575.9,286047000.8,N
1638517595.7,286047000.9,N
1638517615.5,286047001.0,N
1638517635.4,286047000.4,N
1638517655.2,286047000.3,N
1638517675.0,286047002.6,N
1638517676.0,286047002.6,N
1638517695.8,286047000.0,N
1638517715.6,286046999.8,N
1638517735.5,286047002.7,N
1638517755.3,286047003.7,N
1638517775.1,286047003.5,N
1638517795.9,286047004.7,N
1638517815.7,286047004.7,N
1638517835.5,286047005.3,N
1638517855.4,286047004.7,N
1638517875.2,286047006.0,N
1638517895.0,286047007.0,Y
1638517896.0,286047007.0,P
1638517915.8,286047003.1,N
1638517935.6,286047003.5,N
1638517955.5,286047005.7,Y
1638517975.3,286047001.2,P
1638517995.1,286046998.9,N
1638518015.9,286046996.9,N
1638518035.7,286046997.0,N
1638518055.5,286046999.1,N
1638518075.4,286046996.9,N
1638518095.2,286046999.4,N
1638518115.1,286046996.8,N
1638518116.0,286046996.8,N
1638518135.8,286046999.5,N
1638518155.6,286046996.8,N
1638518175.5,286046998.8,N
1638518195.3,286047001.0,N
1638518215.1,286046998.9,N
1638518235.9,286047000.9,N
1638518255.7,286047000.8,N
1638518275.5,286047001.0,N
1638518295.4,286046998.2,N
1638518315.2,286046999.0,N
1638518335.1,286046999.0,N
1638518336.0,286046999.0,N
1638518355.8,286047001.2,N
1638518375.6,286046998.1,N
1638518395.5,286046998.3,N
